Home   Weather   Perth   Past weeks

Flag for United Kingdom Past Weather in Perth, Scotland, United Kingdom — Yesterday and Last 2 Weeks

Now
56 °F

Light rain. Overcast.


Feels Like: 52 °F
Forecast: N/A
Wind: 21 mph from Southwest

Location: Strathallan

Current Time: Dec 7, 2016 at 8:34:33 pm

Latest Report: Dec 7, 2016 at 7:00 pm


Visibility: 11 mi

Pressure: 29.85 "Hg

Humidity: 91%

Dew Point: 54 °F

Location of PerthLocation

Past Weather in Perth — Graph

°F

Perth Temperature Yesterday

Maximum temperature yesterday: 35 °F (at 5:00 pm)
Minimum temperature yesterday: 30 °F (at 4:00 am)
Average temperature yesterday: 32 °F

High & Low Weather Summary for the Past Weeks

 TemperatureHumidityPressure
High58 °F (Dec 7, 5:00 pm)100% (Nov 27, 3:00 am)30.55 "Hg (Nov 27, 3:00 am)
Low18 °F (Nov 25, 6:00 am)60% (Dec 1, 1:00 pm)29.79 "Hg (Dec 7, 3:00 pm)
Average36 °F92%30.32 "Hg
* Reported Nov 22 7:00 pm — Dec 7 7:00 pm, Perth, Weather by CustomWeather, © 2016

Note: Actual official high and low records may vary slightly from our data, if they occured in-between our weather recording intervals... More about our weather records

Advertising

Perth Weather History for the Previous 24 Hours

Scroll right to see more
 ConditionsComfort  
Time TempWeatherWind HumidityBarometerVisibility
7:00 pm
Wed, Dec 7
56 °FLight rain. Overcast.21 mph91%29.85 "Hg11 mi
6:00 pm58 °FLight rain. Overcast.18 mph87%29.82 "Hg28 mi
5:00 pm58 °FCool.22 mph86%29.81 "Hg28 mi
4:00 pm58 °FCool.22 mph88%29.79 "Hg6 mi
3:00 pm57 °FDrizzle. Cloudy.21 mph89%29.79 "Hg7 mi
2:00 pm58 °FCool.17 mph88%29.80 "Hg19 mi
1:00 pm57 °FCool.13 mph88%29.82 "Hg22 mi
12:00 pm56 °FLight rain. Cloudy.9 mph89%29.84 "Hg11 mi
11:00 am56 °FLots of rain. Cloudy.12 mph89%29.87 "Hg8 mi
9:00 am55 °FCool.7 mph90%29.88 "Hg19 mi
8:00 am55 °FCool.10 mph91%29.89 "Hg16 mi
7:00 am55 °FCool.9 mph92%29.90 "Hg14 mi
6:00 am53 °FCool.5 mph100%29.90 "Hg9 mi
5:00 am49 °FFog.2 mph100%29.92 "Hg4 mi
4:00 am41 °FQuite cool.5 mph100%29.94 "Hg3 mi
3:00 am38 °FDrizzle. Overcast.2 mph100%29.96 "Hg3 mi
2:00 am37 °FDrizzle. Overcast.2 mph100%29.97 "Hg1 mi
1:00 am36 °FRain. Overcast.1 mph100%30.00 "Hg1 mi
12:00 am36 °FLots of rain. Overcast.1 mph100%30.01 "Hg1 mi
Weather by CustomWeather, © 2016

See weather overviewHow to use our weather pages